[[{"header":{"parameterUnit":"m.s-1","parameterCategory":1,"la1":30.2991,"la2":30.254,"lo1":-89.0895,"lo2":-89.0444,"dy":0.0017,"dx":0.0017,"nx":28,"ny":28,"refTime":"2024-04-11T09:00:00:Z","depth":0,"parameterNumber":2,"parameterNumberName":"U-component_of_WINDS"},"data":[0,0,0,0,0,0,0,0,0,0,0,0,0,0,0,0,0,0,0,0,0,0,0,0,0,0,0,0,0,0,0,0,0,0,0,0,0,0,0,0,0,0,0,0,0,0,0,0,0,0,0,0,0,0,0,0,0,0,6.5097,6.5098,0,6.5199,6.52,6.5201,6.5164,6.5161,6.5159,6.5157,6.5262,6.5266,6.5271,0,0,0,0,0,0,0,0,0,0,0,0,0,6.4874,6.4878,6.5097,6.5098,6.51,6.5198,6.52,6.5201,6.5164,6.5161,6.5158,6.5156,6.526,6.5266,6.5272,0,0,0,0,0,0,0,0,0,0,0,0,0,6.4973,6.488,6.5097,6.5093,6.5094,6.5198,6.52,6.5201,6.5165,6.5161,6.5158,6.5154,6.5258,6.5265,6.5272,6.5387,0,0,6.5295,6.5298,0,0,0,0,0,0,0,0,6.4967,6.4981,6.5092,6.5093,6.5094,6.5165,6.516,6.5264,6.5165,6.5138,6.5157,6.5153,6.5232,6.5242,6.5268,6.5392,6.5396,6.5296,6.53,6.5303,6.5305,0,0,0,0,0,0,0,6.4961,6.4977,6.5137,6.5094,6.5095,6.5087,6.5097,6.5179,6.5203,6.514,6.5137,6.515,6.5232,6.5261,6.527,6.5398,6.5296,6.5302,6.5307,6.531,6.5625,6.5629,0,0,0,0,0,0,6.4953,6.4971,6.5134,6.514,6.5021,6.5094,6.5105,6.5146,6.5202,6.5207,6.5153,6.5148,6.525,6.5262,6.5274,6.5414,6.5303,6.531,6.5315,6.5621,6.5626,6.563,0,0,0,0,0,0,6.4948,6.4968,6.513,6.5055,6.5075,6.5101,6.5147,6.515,6.5178,6.5212,6.5216,6.5178,6.5248,6.5263,6.536,6.5417,6.5314,6.532,6.5616,6.5623,6.5628,6.5694,0,0,0,0,0,0,6.4942,6.4966,6.5009,6.5056,6.5079,6.5213,6.515,6.5154,6.5191,6.5186,6.5236,6.5241,6.5246,6.5349,6.5367,6.5425,6.5326,6.5611,6.5619,6.5626,6.5687,6.5701,6.5714,0,0,0,0,0,6.4934,6.5023,6.5012,6.5031,6.5133,6.5217,6.523,6.5233,6.5196,6.524,6.5262,6.524,6.5408,6.5359,6.538,6.5441,6.5608,6.5617,6.5626,6.5681,6.5699,6.5714,0,0,0,0,0,0,6.4981,6.5029,6.5017,6.5123,6.5166,6.521,6.5266,6.5252,6.5306,6.5299,6.5302,6.5313,6.5414,6.5437,6.5382,6.5557,6.5502,6.5516,6.5538,6.5555,6.5568,6.5561,6.5332,0,0,0,0,0,6.5004,6.5067,6.5106,6.5196,6.5219,6.5239,6.5275,6.5275,6.5319,6.5337,6.5366,6.5411,6.5474,6.5516,6.5575,6.569,6.5702,6.5743,6.5756,6.5767,6.5779,6.5844,6.5864,6.5659,6.5659,6.5659,0,0,6.5052,6.5086,6.5125,6.5207,6.524,6.5307,6.5254,6.5326,6.5376,6.5348,6.5442,6.5465,6.5515,6.5623,6.5671,6.5645,6.5838,6.5778,6.5787,6.5793,6.5855,6.5875,6.5892,6.5665,6.5664,6.5663,0,0,6.5173,6.5204,6.5285,6.532,6.5371,6.5384,6.5404,6.5451,6.5465,6.5559,6.5541,6.5601,6.5709,6.5747,6.578,6.592,6.5902,6.5939,6.601,6.6074,6.609,6.6104,6.6156,6.6175,6.5951,6.5951,6.5951,0,6.5226,6.5325,6.5327,6.5402,6.544,6.5419,6.5501,6.5535,6.5603,6.563,6.56,6.5738,6.577,6.5887,6.5922,6.5949,6.5973,6.5933,6.6087,6.6102,6.6115,6.6165,6.6184,6.5955,6.5955,6.5954,6.5954,0,6.5389,6.5458,6.5517,6.5585,6.5629,6.5707,6.5723,6.5767,6.5764,6.5781,6.5879,6.5917,6.5986,6.6014,6.601,6.6132,6.6114,6.6086,6.6032,6.6139,6.6186,6.6205,6.5961,6.596,6.5958,6.5957,0,0,6.554,6.5611,6.5632,6.5664,6.5721,6.5775,6.5854,6.5921,6.5961,6.601,6.6077,6.6171,6.6146,6.6184,6.6185,6.6241,6.6353,6.6206,6.6208,6.6234,6.6492,6.6513,6.6535,6.6342,6.6345,6.6348,6.6488,0,6.5668,6.5805,6.5811,6.5937,6.6002,6.5985,6.6054,6.6097,6.6116,6.6176,6.6196,6.6264,6.6225,6.6248,6.6303,6.6327,6.6405,6.6317,6.6406,6.6409,6.6394,6.6559,6.6581,6.6711,6.6506,6.6509,6.6511,0,6.5833,6.5889,6.6021,6.6072,6.61,6.6161,6.6225,6.6282,6.6332,6.6342,6.6386,6.638,6.6463,6.6406,6.6521,6.6462,6.6499,6.6517,6.6522,6.6531,6.6467,6.6574,6.6753,6.6773,6.654,6.6538,6.6535,0,6.5934,6.6041,6.6135,6.6162,6.6223,6.6267,6.6295,6.6341,6.6383,6.6439,6.6467,6.6532,6.6568,6.662,6.6633,6.659,6.6749,6.6692,6.6761,6.6761,6.6795,6.6793,6.6984,6.6817,6.6817,6.6817,6.6816,0,6.6075,6.6157,6.6181,6.6239,6.6331,6.6339,6.6431,6.6455,6.6497,6.6561,6.655,6.661,6.6623,6.6686,6.6697,6.6792,6.6808,6.682,6.6822,6.6822,6.6821,6.6846,6.6838,6.6822,6.6821,6.682,6.6819,0,6.6202,6.6221,6.6323,6.6373,6.6387,6.6454,6.6497,6.6554,6.6572,6.6653,6.6673,6.6702,6.6777,6.6795,6.6883,6.6891,6.7004,6.6997,6.6987,6.6987,6.7055,6.7049,6.727,6.7301,6.7113,6.7115,6.7116,0,6.6292,6.6355,6.6413,6.6455,6.6484,6.6552,6.6594,6.6605,6.665,6.6714,6.6764,6.6837,6.6896,6.7016,6.7046,6.7115,6.711,6.7183,6.712,6.7119,6.7113,6.711,6.7117,6.7195,6.7197,6.7198,6.72,0,6.645,6.6457,6.6518,6.6585,6.6636,6.6689,6.6739,6.6774,6.6792,6.6844,6.692,6.6966,6.7058,6.7132,6.7202,6.7231,6.722,6.722,6.7239,6.724,6.7232,6.7239,6.7021,6.7214,6.7213,6.7212,6.7211,6.721,6.6562,6.6618,6.6669,6.6739,6.6778,6.6826,6.6882,6.6909,6.6973,6.7048,6.7051,6.7135,6.7186,6.7279,6.7313,6.738,6.7357,6.7385,6.7393,6.74,6.7407,6.7221,6.7392,6.7392,6.7391,6.7391,6.7391,0,6.6721,6.6753,6.6817,6.6889,6.6945,6.6929,6.6985,6.7033,6.7107,6.7155,6.7215,6.7304,6.7376,6.7413,6.7486,6.7532,6.7529,6.7551,6.7548,6.7556,6.7422,6.7398,6.7553,6.7553,6.7553,6.7553,6.7553,6.7553,6.681,6.6905,6.6919,6.7035,6.7067,6.7149,6.7182,6.7227,6.7267,6.7367,6.7427,6.7451,6.7496,6.7572,6.7639,6.7648,6.7676,6.7701,6.7708,6.7581,6.7565,6.7549,6.7527,6.7707,6.7707,6.7837,6.7838,6.7839]},{"header":{"parameterUnit":"m.s-1","parameterCategory":1,"la1":30.2991,"la2":30.254,"lo1":-89.0895,"lo2":-89.0444,"dy":0.0017,"dx":0.0017,"nx":28,"ny":28,"refTime":"2024-04-11T09:00:00:Z","depth":0,"parameterNumber":3,"parameterNumberName":"V-component_of_WINDS"},"data":[0,0,0,0,0,0,0,0,0,0,0,0,0,0,0,0,0,0,0,0,0,0,0,0,0,0,0,0,0,0,0,0,0,0,0,0,0,0,0,0,0,0,0,0,0,0,0,0,0,0,0,0,0,0,0,0,0,0,-5.1896,-5.1896,0,-5.1927,-5.1927,-5.1928,-5.1935,-5.1934,-5.1934,-5.1934,-5.1964,-5.1965,-5.1966,0,0,0,0,0,0,0,0,0,0,0,0,0,-5.1841,-5.1842,-5.1896,-5.1896,-5.1897,-5.1927,-5.1928,-5.1928,-5.1935,-5.1934,-5.1934,-5.1934,-5.1963,-5.1965,-5.1966,0,0,0,0,0,0,0,0,0,0,0,0,0,-5.1868,-5.1842,-5.1896,-5.1904,-5.1905,-5.1927,-5.1928,-5.1928,-5.1935,-5.1934,-5.1934,-5.1934,-5.1963,-5.1965,-5.1966,-5.1982,0,0,-5.1971,-5.1971,0,0,0,0,0,0,0,0,-5.1866,-5.187,-5.1902,-5.1903,-5.1904,-5.1927,-5.1919,-5.1946,-5.1935,-5.1923,-5.1934,-5.1934,-5.1952,-5.1954,-5.1961,-5.1983,-5.1985,-5.1971,-5.1972,-5.1972,-5.1973,0,0,0,0,0,0,0,-5.1864,-5.1868,-5.1908,-5.1903,-5.1904,-5.1905,-5.1909,-5.1924,-5.1939,-5.1924,-5.1925,-5.1929,-5.1952,-5.1959,-5.1961,-5.1985,-5.1971,-5.1972,-5.1973,-5.1974,-5.2023,-5.2024,0,0,0,0,0,0,-5.1861,-5.1867,-5.1907,-5.1909,-5.1884,-5.1907,-5.191,-5.192,-5.1939,-5.1941,-5.1929,-5.1929,-5.1957,-5.1959,-5.1962,-5.1983,-5.1972,-5.1974,-5.1975,-5.2023,-5.2023,-5.2024,0,0,0,0,0,0,-5.186,-5.1865,-5.1906,-5.1888,-5.1893,-5.1908,-5.1918,-5.1921,-5.1928,-5.1942,-5.1945,-5.1933,-5.1956,-5.196,-5.1977,-5.1984,-5.1974,-5.1976,-5.2022,-5.2023,-5.2024,-5.2023,0,0,0,0,0,0,-5.1858,-5.1864,-5.1871,-5.1888,-5.1894,-5.1921,-5.1919,-5.1921,-5.193,-5.1931,-5.1947,-5.1949,-5.1957,-5.1975,-5.1979,-5.1986,-5.1977,-5.2022,-5.2023,-5.2024,-5.2022,-5.2023,-5.2024,0,0,0,0,0,-5.1856,-5.1868,-5.1871,-5.1876,-5.1903,-5.1921,-5.1924,-5.1933,-5.1931,-5.1937,-5.1947,-5.1949,-5.1983,-5.1977,-5.1981,-5.1988,-5.2022,-5.2023,-5.2023,-5.2022,-5.2023,-5.2024,0,0,0,0,0,0,-5.185,-5.1871,-5.1874,-5.1892,-5.1905,-5.1922,-5.193,-5.1934,-5.1947,-5.1947,-5.1956,-5.196,-5.1976,-5.1984,-5.1977,-5.2005,-5.2002,-5.2004,-5.1999,-5.2001,-5.2002,-5.1999,-5.1978,0,0,0,0,0,-5.1851,-5.1865,-5.1882,-5.1896,-5.1903,-5.1916,-5.1924,-5.193,-5.1943,-5.1948,-5.1959,-5.1971,-5.1985,-5.1993,-5.2006,-5.2024,-5.2028,-5.2031,-5.2032,-5.2033,-5.2034,-5.2044,-5.2046,-5.2027,-5.2027,-5.2027,0,0,-5.1852,-5.1866,-5.1873,-5.1895,-5.1906,-5.192,-5.192,-5.1934,-5.1944,-5.195,-5.1967,-5.1976,-5.199,-5.2008,-5.2016,-5.2015,-5.204,-5.2034,-5.2034,-5.2035,-5.2045,-5.2047,-5.2049,-5.2028,-5.2028,-5.2027,0,0,-5.1862,-5.1874,-5.1887,-5.1898,-5.1915,-5.1924,-5.1927,-5.1944,-5.195,-5.1968,-5.1973,-5.1985,-5.2008,-5.2018,-5.2026,-5.2042,-5.2044,-5.2046,-5.205,-5.206,-5.2062,-5.2063,-5.2069,-5.207,-5.2047,-5.2047,-5.2047,0,-5.1862,-5.1883,-5.1893,-5.1908,-5.1917,-5.1925,-5.1939,-5.1949,-5.1968,-5.1974,-5.1973,-5.2003,-5.2013,-5.2033,-5.2037,-5.2044,-5.2048,-5.2044,-5.2061,-5.2062,-5.2064,-5.2069,-5.2071,-5.2047,-5.2047,-5.2047,-5.2047,0,-5.1882,-5.1897,-5.1905,-5.1926,-5.1936,-5.195,-5.1963,-5.1972,-5.1977,-5.1986,-5.2004,-5.2017,-5.2033,-5.2039,-5.2043,-5.206,-5.2059,-5.2059,-5.2056,-5.2066,-5.2071,-5.2073,-5.2047,-5.2047,-5.2047,-5.2047,0,0,-5.1887,-5.1914,-5.1917,-5.1926,-5.1946,-5.1957,-5.1972,-5.1989,-5.1997,-5.2011,-5.2023,-5.2043,-5.2044,-5.2053,-5.2059,-5.2068,-5.208,-5.2067,-5.2068,-5.2069,-5.2099,-5.2098,-5.21,-5.2082,-5.2082,-5.2083,-5.2097,0,-5.1899,-5.1926,-5.1936,-5.1958,-5.1972,-5.198,-5.1992,-5.2005,-5.2015,-5.2027,-5.2037,-5.2051,-5.2051,-5.2057,-5.2066,-5.2076,-5.2086,-5.2076,-5.2093,-5.2093,-5.2088,-5.2103,-5.2102,-5.2115,-5.2099,-5.21,-5.21,0,-5.1916,-5.1931,-5.1954,-5.1973,-5.1979,-5.1991,-5.2007,-5.202,-5.2035,-5.2041,-5.2053,-5.2059,-5.2074,-5.2071,-5.2092,-5.2085,-5.2093,-5.2099,-5.21,-5.2101,-5.2097,-5.2104,-5.2119,-5.2121,-5.2103,-5.2103,-5.2103,0,-5.1917,-5.1943,-5.1961,-5.1969,-5.1991,-5.1999,-5.2009,-5.2024,-5.2034,-5.2048,-5.2055,-5.2071,-5.2079,-5.2091,-5.2101,-5.2098,-5.2122,-5.2119,-5.2127,-5.2126,-5.213,-5.213,-5.2147,-5.2136,-5.2136,-5.2136,-5.2136,0,-5.1929,-5.1943,-5.1962,-5.1973,-5.1989,-5.2001,-5.2016,-5.2026,-5.204,-5.2052,-5.206,-5.2072,-5.2085,-5.2098,-5.2106,-5.2122,-5.2126,-5.2131,-5.2133,-5.213,-5.2129,-5.2134,-5.2134,-5.2137,-5.2137,-5.2137,-5.2137,0,-5.1933,-5.1946,-5.1966,-5.1986,-5.1991,-5.2002,-5.2019,-5.203,-5.204,-5.2056,-5.206,-5.2076,-5.2092,-5.2103,-5.2124,-5.2129,-5.2147,-5.2149,-5.2141,-5.2142,-5.2149,-5.2148,-5.2169,-5.2172,-5.2161,-5.2161,-5.2161,0,-5.1939,-5.195,-5.1972,-5.1982,-5.1992,-5.2006,-5.2017,-5.203,-5.204,-5.2059,-5.2067,-5.2084,-5.2098,-5.2123,-5.2136,-5.2152,-5.2154,-5.2161,-5.2156,-5.2153,-5.2154,-5.2153,-5.2154,-5.2161,-5.2161,-5.2161,-5.2161,0,-5.1949,-5.1956,-5.1971,-5.1988,-5.2001,-5.2015,-5.203,-5.2037,-5.2052,-5.2063,-5.208,-5.2091,-5.2113,-5.2129,-5.2147,-5.2156,-5.2161,-5.2162,-5.2165,-5.2161,-5.2157,-5.2159,-5.2142,-5.2161,-5.2161,-5.2161,-5.2161,-5.2161,-5.1954,-5.1965,-5.1982,-5.1999,-5.2011,-5.2025,-5.2036,-5.2048,-5.2063,-5.2082,-5.2088,-5.2106,-5.2122,-5.2146,-5.2155,-5.2169,-5.2169,-5.2172,-5.2173,-5.2174,-5.2173,-5.2155,-5.2172,-5.2172,-5.2172,-5.2172,-5.2172,0,-5.1964,-5.1976,-5.1992,-5.2012,-5.2025,-5.203,-5.2047,-5.2057,-5.2073,-5.2088,-5.2102,-5.2122,-5.2138,-5.2152,-5.2169,-5.2178,-5.218,-5.2181,-5.2181,-5.2183,-5.2173,-5.2169,-5.2179,-5.2179,-5.2179,-5.2179,-5.2179,-5.2179,-5.1971,-5.1989,-5.1998,-5.2022,-5.2034,-5.2052,-5.2061,-5.2073,-5.2085,-5.2107,-5.2121,-5.2131,-5.2146,-5.2164,-5.2179,-5.2183,-5.2189,-5.219,-5.2194,-5.2184,-5.2183,-5.2182,-5.2179,-5.2191,-5.2191,-5.2202,-5.2203,-5.2203]}]]